contact: severine.martini@mio.osupytheas.fr, dominique.lefevre@mio.osupytheas.fr
Project:EMSO Ligure-ouest http://www.emso-fr.org/EMSO-France
Sensor Aquadopp, Serial 05974 
DOI : "https://doi.org/10.17882/97948" 
Title:EMSO Western Ligurian : Data Bathybot Aquadopp sensor - deploiement 2023-04-28
Datetime,Profondeur,Latitude,Longitude,X_East,Y_North,Z_up,Amplitude_X,Amplitude_Y,Amplitude_Z,Batterie,Sound_Speed,Heading,Pitch,Roll,Pressure,Temperature,Fluorescence,Speed,Direction
time,m,degree_north,degree_east,m.s-1,m.s-1,m.s-1,1,1,1,Volt,m.s-1,degree,degree,degree,dbar,degree_C,arbitrary units (a.u.),m.s-1,degree
2024-01-27T00:03:12,2420,42.8014,5.9826,0.668,0.033,3.735,156.0,153.0,154.0,11.8,1504.7,271.3,-0.8,0.8,2485.89,13.28,805.0,0.669,87.2
2024-01-27T00:06:12,2420,42.8014,5.9826,0.583,-0.196,3.381,156.0,153.0,153.0,11.8,1504.7,271.4,-0.8,0.9,2485.39,13.28,775.0,0.615,108.6
2024-01-27T00:09:13,2420,42.8014,5.9826,0.897,0.02,3.489,156.0,153.0,153.0,11.8,1504.7,271.4,-0.8,0.9,2485.729,13.28,776.0,0.897,88.7
2024-01-27T00:12:13,2420,42.8014,5.9826,0.47,0.035,3.023,156.0,153.0,153.0,11.7,1504.7,271.4,-0.9,0.9,2485.649,13.28,776.0,0.471,85.7
2024-01-27T00:15:13,2420,42.8014,5.9826,0.666,0.278,3.292,156.0,153.0,154.0,11.7,1504.7,271.4,-0.8,0.9,2485.185,13.28,789.0,0.722,67.3
2024-01-27T00:18:13,2420,42.8014,5.9826,0.746,-0.214,3.141,156.0,153.0,153.0,11.7,1504.7,271.4,-0.8,0.9,2485.344,13.28,795.0,0.776,106.0
2024-01-27T00:21:13,2420,42.8014,5.9826,0.419,-0.453,3.077,156.0,153.0,154.0,11.8,1504.7,271.4,-0.8,0.9,2485.261,13.28,802.0,0.617,137.2
2024-01-27T00:24:13,2420,42.8014,5.9826,0.707,0.027,3.645,156.0,153.0,153.0,11.7,1504.7,271.4,-0.8,0.9,2485.139,13.28,775.0,0.707,87.8
2024-01-27T00:27:13,2420,42.8014,5.9826,1.046,0.037,3.357,156.0,153.0,153.0,11.8,1504.7,271.4,-0.9,0.9,2485.155,13.28,795.0,1.046,88.0
2024-01-27T00:30:12,2420,42.8014,5.9826,0.853,-0.215,3.044,156.0,153.0,153.0,11.8,1504.7,271.3,-0.8,0.9,2485.239,13.28,783.0,0.88,104.1
2024-01-27T00:33:13,2420,42.8014,5.9826,0.723,-0.22,3.214,156.0,153.0,154.0,11.7,1504.7,271.3,-0.8,0.9,2485.434,13.28,785.0,0.756,106.9
2024-01-27T00:36:13,2420,42.8014,5.9826,0.831,0.043,3.568,156.0,153.0,153.0,11.8,1504.7,271.5,-0.8,0.9,2485.404,13.28,788.0,0.832,87.0
2024-01-27T00:39:13,2420,42.8014,5.9826,0.448,-0.443,3.025,156.0,153.0,154.0,11.8,1504.7,271.4,-0.8,0.9,2485.424,13.28,793.0,0.63,134.7
2024-01-27T00:42:13,2420,42.8014,5.9826,0.755,-0.217,3.194,156.0,153.0,153.0,11.8,1504.7,271.4,-0.8,0.9,2485.295,13.28,783.0,0.786,106.0
2024-01-27T00:45:13,2420,42.8014,5.9826,1.059,0.02,3.325,156.0,153.0,154.0,11.7,1504.7,271.3,-0.8,0.9,2485.51,13.28,791.0,1.059,88.9
2024-01-27T00:48:12,2420,42.8014,5.9826,0.72,0.009,3.658,156.0,153.0,154.0,11.8,1504.7,271.4,-0.8,0.9,2485.4,13.28,792.0,0.72,89.3
2024-01-27T00:51:13,2420,42.8014,5.9826,1.089,-0.235,2.818,156.0,153.0,153.0,11.8,1504.7,271.4,-0.8,0.9,2484.872,13.28,800.0,1.114,102.2
2024-01-27T00:54:13,2420,42.8014,5.9826,0.79,-0.224,3.161,156.0,153.0,153.0,11.8,1504.7,271.6,-0.8,0.9,2485.49,13.28,803.0,0.821,105.8
2024-01-27T00:57:13,2420,42.8014,5.9826,0.757,0.05,3.638,156.0,153.0,153.0,11.7,1504.7,271.4,-0.8,0.9,2485.016,13.28,791.0,0.759,86.2
2024-01-27T01:03:13,2420,42.8014,5.9826,0.792,0.021,2.663,156.0,153.0,154.0,11.8,1504.7,271.5,-0.8,0.9,2485.207,13.28,786.0,0.792,88.5
2024-01-27T01:06:13,2420,42.8014,5.9826,0.466,-0.437,2.996,156.0,153.0,153.0,11.8,1504.7,271.3,-0.8,0.9,2485.637,13.28,788.0,0.639,133.2
2024-01-27T01:09:13,2420,42.8014,5.9826,0.678,0.038,3.682,156.0,153.0,153.0,11.7,1504.7,271.4,-0.8,0.9,2485.279,13.28,804.0,0.679,86.8
2024-01-27T01:12:13,2420,42.8014,5.9826,0.712,-0.215,3.202,156.0,153.0,154.0,11.8,1504.7,271.4,-0.8,0.9,2485.219,13.28,787.0,0.744,106.8
2024-01-27T01:15:13,2420,42.8014,5.9826,0.479,0.028,3.002,156.0,153.0,154.0,11.8,1504.7,271.4,-0.8,0.9,2485.263,13.28,1058.0,0.48,86.7
2024-01-27T01:18:13,2420,42.8014,5.9826,0.693,-0.229,3.207,156.0,153.0,153.0,11.8,1504.7,271.7,-0.8,0.9,2485.295,13.28,954.0,0.73,108.3
2024-01-27T01:21:13,2420,42.8014,5.9826,0.577,0.291,3.359,156.0,153.0,153.0,11.8,1504.7,271.4,-0.9,0.9,2485.468,13.28,944.0,0.646,63.2
2024-01-27T01:24:13,2420,42.8014,5.9826,0.556,0.037,2.918,156.0,153.0,153.0,11.8,1504.7,271.4,-0.9,0.9,2485.193,13.28,939.0,0.557,86.2
2024-01-27T01:27:13,2420,42.8014,5.9826,0.899,0.022,3.453,156.0,153.0,153.0,11.8,1504.7,271.3,-0.8,0.9,2485.613,13.28,1509.0,0.899,88.6
2024-01-27T01:30:13,2420,42.8014,5.9826,0.75,0.041,3.606,156.0,153.0,154.0,11.7,1504.7,271.3,-0.8,0.9,2485.466,13.28,2387.0,0.751,86.9
2024-01-27T01:33:12,2420,42.8014,5.9826,0.49,0.536,3.057,156.0,153.0,154.0,11.8,1504.7,271.5,-0.8,0.9,2485.649,13.28,1196.0,0.726,42.4
2024-01-27T01:36:13,2420,42.8014,5.9826,0.553,0.042,2.944,156.0,153.0,153.0,11.7,1504.7,271.5,-0.8,0.9,2485.303,13.28,1326.0,0.555,85.7
2024-01-27T01:39:13,2420,42.8014,5.9826,0.658,0.033,2.847,156.0,153.0,153.0,11.8,1504.7,271.5,-0.8,0.9,2485.332,13.28,1195.0,0.659,87.1
2024-01-27T01:42:13,2420,42.8014,5.9826,0.767,0.041,3.594,156.0,153.0,153.0,11.8,1504.7,271.5,-0.8,0.8,2485.069,13.28,1248.0,0.768,86.9
2024-01-27T01:45:13,2420,42.8014,5.9826,1.123,0.02,3.282,156.0,153.0,154.0,11.8,1504.7,271.4,-0.8,0.9,2485.261,13.28,1126.0,1.123,89.0
2024-01-27T01:48:13,2420,42.8014,5.9826,0.914,0.042,3.427,156.0,153.0,154.0,11.8,1504.7,271.4,-0.8,0.9,2485.342,13.28,1220.0,0.915,87.4
2024-01-27T01:51:12,2420,42.8014,5.9826,0.67,0.037,3.717,156.0,153.0,153.0,11.8,1504.7,271.4,-0.8,0.9,2485.362,13.28,1276.0,0.671,86.8
2024-01-27T01:54:13,2420,42.8014,5.9826,0.677,0.252,3.223,156.0,153.0,154.0,11.7,1504.7,271.4,-0.8,0.9,2485.336,13.28,1137.0,0.722,69.6
2024-01-27T01:57:13,2420,42.8014,5.9826,0.842,0.039,3.558,156.0,153.0,153.0,11.8,1504.7,271.5,-0.8,0.9,2485.267,13.28,1134.0,0.843,87.4
2024-01-27T02:03:13,2420,42.8014,5.9826,0.742,0.047,3.623,156.0,153.0,153.0,11.8,1504.7,271.4,-0.8,0.9,2485.269,13.28,958.0,0.744,86.4
2024-01-27T02:06:13,2420,42.8014,5.9826,0.851,0.04,3.496,156.0,153.0,153.0,11.8,1504.7,271.4,-0.8,0.9,2485.458,13.28,967.0,0.852,87.3
2024-01-27T02:09:13,2420,42.8014,5.9826,0.532,-0.186,3.376,156.0,153.0,153.0,11.8,1504.7,271.3,-0.8,0.9,2485.647,13.28,957.0,0.564,109.3
2024-01-27T02:12:13,2420,42.8014,5.9826,0.404,0.294,3.528,156.0,153.0,153.0,11.8,1504.7,271.4,-0.9,0.9,2485.585,13.28,952.0,0.5,54.0
2024-01-27T02:15:13,2420,42.8014,5.9826,0.748,0.021,3.69,156.0,153.0,154.0,11.8,1504.7,271.5,-0.8,0.9,2485.219,13.28,943.0,0.748,88.4
2024-01-27T02:18:13,2420,42.8014,5.9826,0.619,0.051,3.747,156.0,153.0,154.0,11.8,1504.7,271.4,-0.9,0.9,2485.424,13.28,939.0,0.621,85.3
2024-01-27T02:21:13,2420,42.8014,5.9826,0.678,0.521,2.859,156.0,153.0,154.0,11.7,1504.7,271.4,-0.8,0.9,2485.382,13.28,1029.0,0.855,52.5
2024-01-27T02:24:13,2420,42.8014,5.9826,0.823,0.037,3.529,156.0,153.0,153.0,11.8,1504.7,271.4,-0.8,0.9,2485.209,13.28,987.0,0.824,87.4
2024-01-27T02:27:13,2420,42.8014,5.9826,0.637,0.039,3.783,156.0,153.0,153.0,11.8,1504.7,271.4,-0.8,0.9,2485.201,13.28,1030.0,0.638,86.5
2024-01-27T02:30:12,2420,42.8014,5.9826,0.654,0.275,3.257,156.0,153.0,153.0,11.8,1504.7,271.4,-0.9,0.9,2485.5,13.28,991.0,0.709,67.2
2024-01-27T02:33:13,2420,42.8014,5.9826,0.918,0.267,3.016,156.0,153.0,154.0,11.8,1504.7,271.4,-0.9,0.9,2485.418,13.28,981.0,0.956,73.8
2024-01-27T02:36:13,2420,42.8014,5.9826,0.76,-0.209,3.153,156.0,153.0,153.0,11.8,1504.7,271.5,-0.8,0.9,2485.165,13.28,981.0,0.788,105.4
2024-01-27T02:39:13,2420,42.8014,5.9826,1.017,0.032,3.346,156.0,153.0,153.0,11.7,1504.7,271.5,-0.8,0.9,2485.057,13.28,960.0,1.017,88.2
2024-01-27T02:42:13,2420,42.8014,5.9826,0.642,0.276,3.33,156.0,153.0,153.0,11.7,1504.7,271.3,-0.9,0.9,2485.713,13.28,971.0,0.699,66.7
2024-01-27T02:45:13,2420,42.8014,5.9826,0.777,-0.205,3.15,156.0,153.0,153.0,11.8,1504.7,271.4,-0.8,0.9,2485.103,13.28,1004.0,0.804,104.8
2024-01-27T02:48:12,2420,42.8014,5.9826,0.662,0.033,2.852,156.0,153.0,154.0,11.8,1504.7,271.5,-0.8,0.9,2485.147,13.28,796.0,0.663,87.1
2024-01-27T02:51:13,2420,42.8014,5.9826,1.116,0.029,3.252,156.0,153.0,153.0,11.8,1504.7,271.5,-0.8,0.9,2485.633,13.28,789.0,1.116,88.5
2024-01-27T02:54:13,2420,42.8014,5.9826,0.653,0.284,3.29,156.0,153.0,154.0,11.8,1504.7,271.3,-0.8,0.9,2485.542,13.28,777.0,0.712,66.5
2024-01-27T02:57:13,2420,42.8014,5.9826,0.879,0.036,3.511,156.0,153.0,153.0,11.8,1504.7,271.5,-0.8,0.9,2485.079,13.28,1038.0,0.88,87.7
2024-01-27T03:03:13,2420,42.8014,5.9826,1.186,0.037,3.156,156.0,153.0,153.0,11.8,1504.7,271.4,-0.8,0.9,2485.432,13.28,778.0,1.186,88.2
2024-01-27T03:06:13,2420,42.8014,5.9826,0.977,-0.212,2.933,156.0,153.0,154.0,11.7,1504.7,271.3,-0.8,0.9,2485.685,13.28,782.0,1.0,102.2
2024-01-27T03:09:13,2420,42.8014,5.9826,0.107,0.06,4.117,157.0,153.0,154.0,11.7,1504.7,271.9,-0.8,0.9,2485.245,13.28,774.0,0.122,60.7
2024-01-27T03:12:13,2420,42.8014,5.9826,0.073,0.068,4.129,157.0,153.0,154.0,11.8,1504.7,271.3,-0.8,0.9,2485.257,13.28,786.0,0.099,47.0
2024-01-27T03:15:12,2420,42.8014,5.9826,0.082,0.063,4.09,157.0,153.0,154.0,11.7,1504.7,271.8,-0.9,0.9,2485.014,13.28,804.0,0.103,52.5
2024-01-27T03:18:13,2420,42.8014,5.9826,1.247,0.039,3.161,156.0,153.0,153.0,11.8,1504.7,271.4,-0.8,0.9,2485.645,13.28,788.0,1.247,88.2
2024-01-27T03:21:13,2420,42.8014,5.9826,1.017,0.52,2.534,156.0,153.0,154.0,11.7,1504.7,271.4,-0.9,0.9,2485.747,13.28,785.0,1.142,62.9
2024-01-27T03:24:13,2420,42.8014,5.9826,0.681,0.504,1.973,156.0,153.0,153.0,11.7,1504.7,271.3,-0.9,0.9,2485.39,13.28,796.0,0.847,53.5
2024-01-27T03:27:13,2420,42.8014,5.9826,0.737,-0.245,2.313,156.0,153.0,154.0,11.8,1504.7,271.3,-0.8,0.9,2485.141,13.28,790.0,0.777,108.4
2024-01-27T03:30:13,2420,42.8014,5.9826,0.829,0.752,2.261,156.0,153.0,153.0,11.7,1504.7,271.5,-0.9,0.9,2485.364,13.28,795.0,1.119,47.8
2024-01-27T03:33:13,2420,42.8014,5.9826,0.658,0.016,1.964,156.0,153.0,154.0,11.7,1504.7,271.5,-0.8,0.9,2485.697,13.28,802.0,0.658,88.6
2024-01-27T03:36:13,2420,42.8014,5.9826,0.339,1.004,1.413,156.0,153.0,154.0,11.8,1504.7,271.3,-0.8,0.9,2485.552,13.28,786.0,1.06,18.7
2024-01-27T03:39:13,2420,42.8014,5.9826,0.501,-0.228,1.677,156.0,153.0,153.0,11.8,1504.7,271.4,-0.8,0.9,2485.544,13.28,790.0,0.55,114.5
2024-01-27T03:42:13,2420,42.8014,5.9826,0.85,0.251,2.23,156.0,153.0,154.0,11.7,1504.7,271.4,-0.8,0.9,2485.169,13.28,786.0,0.886,73.6
2024-01-27T03:45:13,2420,42.8014,5.9826,0.948,0.257,2.11,156.0,153.0,153.0,11.8,1504.7,271.4,-0.9,0.9,2485.231,13.28,788.0,0.982,74.8
2024-01-27T03:48:13,2420,42.8014,5.9826,0.824,0.264,2.249,156.0,153.0,153.0,11.8,1504.7,271.5,-0.8,0.9,2485.378,13.28,796.0,0.865,72.2
2024-01-27T03:51:13,2420,42.8014,5.9826,0.695,0.026,1.955,156.0,153.0,153.0,11.7,1504.7,271.5,-0.8,0.9,2485.006,13.28,799.0,0.695,87.9
2024-01-27T03:54:13,2420,42.8014,5.9826,0.864,0.262,2.236,156.0,153.0,153.0,11.8,1504.7,271.4,-0.9,0.8,2485.392,13.28,783.0,0.903,73.1
2024-01-27T03:57:12,2420,42.8014,5.9826,0.468,0.485,1.251,156.0,153.0,154.0,11.8,1504.7,271.4,-0.8,0.9,2485.183,13.28,781.0,0.674,44.0
2024-01-27T04:03:13,2420,42.8014,5.9826,0.942,0.507,2.563,157.0,153.0,153.0,11.7,1504.7,271.4,-0.9,0.9,2485.639,13.28,778.0,1.07,61.7
2024-01-27T04:06:13,2420,42.8014,5.9826,0.9,-0.478,2.627,156.0,153.0,153.0,11.8,1504.7,271.4,-0.9,0.9,2485.283,13.28,821.0,1.019,118.0
2024-01-27T04:09:13,2420,42.8014,5.9826,0.618,0.016,2.007,156.0,153.0,153.0,11.8,1504.7,271.4,-0.8,0.9,2485.659,13.28,786.0,0.618,88.5
2024-01-27T04:12:13,2420,42.8014,5.9826,0.864,-0.479,2.634,156.0,153.0,153.0,11.8,1504.7,271.4,-0.8,0.9,2485.532,13.28,795.0,0.988,119.0
2024-01-27T04:15:13,2420,42.8014,5.9826,0.856,0.015,2.63,156.0,153.0,153.0,11.8,1504.7,271.4,-0.8,0.9,2485.522,13.28,797.0,0.856,89.0
2024-01-27T04:18:13,2420,42.8014,5.9826,1.061,-0.219,2.887,156.0,153.0,153.0,11.8,1504.7,271.4,-0.8,0.9,2485.556,13.28,799.0,1.083,101.7
2024-01-27T04:21:13,2420,42.8014,5.9826,0.548,0.529,2.108,156.0,153.0,154.0,11.7,1504.7,271.4,-0.8,0.9,2485.255,13.28,794.0,0.762,46.0
2024-01-27T04:24:12,2420,42.8014,5.9826,0.998,0.271,2.958,156.0,153.0,154.0,11.8,1504.7,271.4,-0.9,0.9,2485.382,13.28,791.0,1.034,74.8
2024-01-27T04:27:13,2420,42.8014,5.9826,1.046,0.495,2.476,156.0,153.0,153.0,11.7,1504.7,271.3,-0.8,0.9,2485.392,13.28,782.0,1.157,64.7
2024-01-27T04:30:13,2420,42.8014,5.9826,0.95,-0.484,2.576,156.0,153.0,154.0,11.8,1504.7,271.3,-0.8,0.9,2485.556,13.28,791.0,1.066,117.0
2024-01-27T04:33:12,2420,42.8014,5.9826,0.753,-0.221,2.322,156.0,153.0,153.0,11.8,1504.7,271.3,-0.9,0.9,2485.432,13.28,796.0,0.785,106.4
2024-01-27T04:36:13,2420,42.8014,5.9826,0.859,0.52,2.646,156.0,153.0,153.0,11.8,1504.7,271.3,-0.9,0.9,2485.211,13.28,793.0,1.004,58.8
2024-01-27T04:39:13,2420,42.8014,5.9826,0.919,0.019,2.638,156.0,153.0,153.0,11.8,1504.7,271.5,-0.9,0.9,2485.934,13.28,786.0,0.919,88.8
2024-01-27T04:42:13,2420,42.8014,5.9826,0.489,0.013,1.249,156.0,153.0,154.0,11.8,1504.7,271.4,-0.8,0.9,2485.593,13.28,790.0,0.489,88.5
2024-01-27T04:45:13,2420,42.8014,5.9826,1.005,0.253,2.993,156.0,153.0,154.0,11.8,1504.7,271.4,-0.8,0.9,2485.392,13.28,781.0,1.036,75.9
2024-01-27T04:48:13,2420,42.8014,5.9826,0.76,0.249,2.316,156.0,153.0,154.0,11.8,1504.7,271.3,-0.8,0.9,2485.673,13.28,789.0,0.8,71.9
2024-01-27T04:51:13,2420,42.8014,5.9826,0.465,-0.229,1.732,156.0,153.0,153.0,11.8,1504.7,271.4,-0.8,0.9,2485.597,13.28,800.0,0.518,116.2
2024-01-27T04:54:13,2420,42.8014,5.9826,0.776,0.751,2.297,156.0,153.0,154.0,11.8,1504.7,271.4,-0.9,0.8,2485.111,13.28,808.0,1.08,45.9
2024-01-27T04:57:13,2420,42.8014,5.9826,0.334,0.996,1.436,156.0,153.0,153.0,11.8,1504.7,271.3,-0.8,0.9,2485.595,13.28,776.0,1.05,18.5
2024-01-27T05:03:13,2420,42.8014,5.9826,0.572,0.249,1.615,156.0,153.0,153.0,11.7,1504.7,271.5,-0.8,0.9,2485.763,13.28,794.0,0.624,66.5
2024-01-27T05:06:13,2420,42.8014,5.9826,0.428,0.003,1.337,156.0,153.0,153.0,11.7,1504.7,271.5,-0.8,0.9,2485.733,13.28,783.0,0.428,89.6
2024-01-27T05:09:13,2420,42.8014,5.9826,0.647,-0.974,1.966,156.0,153.0,153.0,11.8,1504.7,271.4,-0.8,0.9,2485.293,13.28,776.0,1.169,146.4
2024-01-27T05:12:13,2420,42.8014,5.9826,0.954,-0.231,2.142,156.0,153.0,153.0,11.8,1504.7,271.4,-0.9,0.9,2485.994,13.28,800.0,0.982,103.6
2024-01-27T05:15:13,2420,42.8014,5.9826,0.707,0.013,1.926,156.0,153.0,154.0,11.8,1504.7,271.4,-0.8,0.9,2485.269,13.28,788.0,0.707,89.0
2024-01-27T05:18:13,2420,42.8014,5.9826,0.713,-0.487,1.931,156.0,153.0,153.0,11.8,1504.7,271.5,-0.8,0.9,2485.46,13.28,788.0,0.863,124.3
2024-01-27T05:21:13,2420,42.8014,5.9826,0.386,0.51,1.374,156.0,153.0,153.0,11.7,1504.7,271.4,-0.8,0.9,2485.735,13.28,786.0,0.64,37.1
2024-01-27T05:24:13,2420,42.8014,5.9826,0.892,-0.2,3.032,156.0,153.0,153.0,11.8,1504.7,271.5,-0.8,0.9,2485.45,13.28,777.0,0.914,102.6
2024-01-27T05:27:12,2420,42.8014,5.9826,0.855,-0.244,2.232,156.0,153.0,153.0,11.7,1504.7,271.4,-0.8,0.9,2485.462,13.28,785.0,0.889,105.9
2024-01-27T05:30:13,2420,42.8014,5.9826,0.946,0.012,2.586,157.0,153.0,153.0,11.8,1504.7,271.4,-0.8,0.9,2485.619,13.28,790.0,0.946,89.3
2024-01-27T05:33:13,2420,42.8014,5.9826,1.081,0.261,2.902,156.0,153.0,153.0,11.8,1504.7,271.3,-0.8,0.9,2485.225,13.28,789.0,1.112,76.4
2024-01-27T05:36:13,2420,42.8014,5.9826,0.696,-0.222,2.389,156.0,153.0,153.0,11.7,1504.7,271.3,-0.8,0.9,2485.627,13.28,794.0,0.731,107.7
2024-01-27T05:39:13,2420,42.8014,5.9826,1.087,0.274,2.847,156.0,153.0,153.0,11.8,1504.7,271.5,-0.8,0.9,2485.579,13.28,776.0,1.121,75.9
2024-01-27T05:42:13,2420,42.8014,5.9826,0.529,0.753,1.651,156.0,153.0,154.0,11.8,1504.7,271.5,-0.8,0.9,2485.827,13.28,787.0,0.92,35.1
2024-01-27T05:45:13,2420,42.8014,5.9826,0.482,0.265,1.714,156.0,153.0,153.0,11.8,1504.7,271.5,-0.9,0.9,2486.068,13.28,788.0,0.55,61.2
2024-01-27T05:48:13,2420,42.8014,5.9826,1.075,0.246,2.883,156.0,153.0,153.0,11.8,1504.7,271.4,-0.8,0.9,2485.745,13.28,783.0,1.103,77.1
2024-01-27T05:51:13,2420,42.8014,5.9826,0.533,0.021,2.083,156.0,153.0,153.0,11.8,1504.7,271.5,-0.9,0.9,2485.585,13.28,796.0,0.533,87.7
2024-01-27T05:54:12,2420,42.8014,5.9826,1.156,0.266,2.808,156.0,153.0,154.0,11.8,1504.7,271.3,-0.8,0.9,2485.657,13.28,789.0,1.186,77.0
2024-01-27T05:57:13,2420,42.8014,5.9826,1.07,-0.215,2.885,157.0,153.0,153.0,11.8,1504.7,271.3,-0.8,0.9,2485.831,13.28,782.0,1.091,101.4
2024-01-27T06:03:12,2420,42.8014,5.9826,1.042,0.041,3.326,156.0,153.0,153.0,11.8,1504.7,271.5,-0.9,0.9,2485.575,13.28,794.0,1.043,87.7
2024-01-27T06:06:13,2420,42.8014,5.9826,0.597,0.028,2.012,156.0,153.0,153.0,11.8,1504.7,271.4,-0.9,0.9,2485.723,13.28,782.0,0.598,87.3
2024-01-27T06:09:13,2420,42.8014,5.9826,1.195,0.047,3.216,156.0,153.0,153.0,11.8,1504.7,271.3,-0.9,0.9,2485.554,13.28,792.0,1.196,87.8
2024-01-27T06:12:13,2420,42.8014,5.9826,1.266,0.01,3.144,156.0,153.0,153.0,11.8,1504.7,271.5,-0.8,0.9,2485.418,13.28,799.0,1.266,89.5
2024-01-27T06:15:13,2420,42.8014,5.9826,1.08,0.245,2.885,156.0,153.0,153.0,11.7,1504.7,271.4,-0.8,0.8,2485.675,13.28,783.0,1.107,77.2
2024-01-27T06:18:12,2420,42.8014,5.9826,0.515,-0.235,1.682,156.0,153.0,154.0,11.8,1504.7,271.4,-0.8,0.9,2485.41,13.28,787.0,0.566,114.5
2024-01-27T06:21:13,2420,42.8014,5.9826,0.679,0.508,1.958,156.0,153.0,154.0,11.8,1504.7,271.4,-0.9,0.9,2485.56,13.28,789.0,0.848,53.2
2024-01-27T06:24:13,2420,42.8014,5.9826,0.998,-0.213,2.959,156.0,153.0,154.0,11.8,1504.7,271.3,-0.8,0.9,2485.474,13.28,786.0,1.02,102.0
2024-01-27T06:27:13,2420,42.8014,5.9826,0.266,0.265,1.066,156.0,153.0,153.0,11.7,1504.7,271.4,-0.8,0.9,2485.474,13.28,861.0,0.375,45.1
2024-01-27T06:30:13,2420,42.8014,5.9826,0.989,-0.203,2.973,156.0,153.0,154.0,11.8,1504.7,271.4,-0.8,0.9,2485.679,13.28,788.0,1.01,101.6
2024-01-27T06:33:13,2420,42.8014,5.9826,0.384,-0.231,1.804,156.0,153.0,153.0,11.8,1504.7,271.5,-0.8,0.9,2485.695,13.28,841.0,0.448,121.0
2024-01-27T06:36:13,2420,42.8014,5.9826,0.31,0.271,1.886,156.0,153.0,154.0,11.8,1504.7,271.4,-0.8,0.9,2485.45,13.28,786.0,0.412,48.8
2024-01-27T06:39:13,2420,42.8014,5.9826,0.976,0.26,2.965,156.0,153.0,153.0,11.8,1504.7,271.3,-0.8,0.9,2485.376,13.28,1064.0,1.01,75.1
2024-01-27T06:42:13,2420,42.8014,5.9826,1.158,0.021,3.241,156.0,153.0,153.0,11.8,1504.7,271.4,-0.8,0.9,2485.635,13.28,776.0,1.158,89.0
2024-01-27T06:45:13,2420,42.8014,5.9826,0.892,-0.229,2.193,156.0,153.0,153.0,11.7,1504.7,271.4,-0.8,0.9,2485.621,13.28,1339.0,0.921,104.4
2024-01-27T06:48:13,2420,42.8014,5.9826,0.892,0.008,2.638,156.0,153.0,153.0,11.8,1504.7,271.4,-0.8,0.9,2485.404,13.28,781.0,0.892,89.5
2024-01-27T06:51:13,2420,42.8014,5.9826,0.848,0.26,2.229,156.0,153.0,154.0,11.8,1504.7,271.4,-0.8,0.9,2485.342,13.28,788.0,0.887,73.0
2024-01-27T06:54:13,2420,42.8014,5.9826,1.216,0.023,3.185,157.0,152.0,154.0,11.7,1504.7,271.4,-0.8,0.9,2485.538,13.28,786.0,1.216,88.9
2024-01-27T06:57:12,2420,42.8014,5.9826,0.783,-0.24,2.268,156.0,153.0,153.0,11.8,1504.7,271.4,-0.8,0.9,2485.926,13.28,792.0,0.819,107.0
2024-01-27T07:03:13,2420,42.8014,5.9826,0.638,0.023,2.009,156.0,153.0,154.0,11.8,1504.7,271.4,-0.8,0.9,2485.86,13.28,789.0,0.638,87.9
2024-01-27T07:06:13,2420,42.8014,5.9826,0.982,0.015,2.54,156.0,153.0,154.0,11.8,1504.7,271.3,-0.8,0.9,2485.581,13.28,777.0,0.982,89.1
2024-01-27T07:09:13,2420,42.8014,5.9826,0.555,0.257,1.63,156.0,153.0,153.0,11.8,1504.7,271.4,-0.8,0.9,2485.749,13.28,785.0,0.612,65.2
2024-01-27T07:12:13,2420,42.8014,5.9826,1.044,-0.225,2.926,156.0,153.0,154.0,11.8,1504.7,271.4,-0.9,0.9,2485.972,13.28,1859.0,1.068,102.2
2024-01-27T07:15:13,2420,42.8014,5.9826,0.988,0.021,2.515,156.0,153.0,153.0,11.8,1504.7,271.4,-0.8,0.8,2485.751,13.28,801.0,0.988,88.8
2024-01-27T07:18:12,2420,42.8014,5.9826,0.466,-0.985,1.289,156.0,153.0,154.0,11.8,1504.7,271.3,-0.9,0.9,2485.518,13.28,786.0,1.09,154.7
2024-01-27T07:21:13,2420,42.8014,5.9826,1.093,0.025,3.254,157.0,153.0,154.0,11.8,1504.7,271.3,-0.8,0.9,2485.556,13.28,797.0,1.093,88.7
2024-01-27T07:24:13,2420,42.8014,5.9826,1.097,0.273,2.894,157.0,153.0,153.0,11.8,1504.7,271.4,-0.9,0.9,2485.785,13.28,796.0,1.13,76.0
2024-01-27T07:27:13,2420,42.8014,5.9826,1.098,0.036,3.293,156.0,153.0,153.0,11.8,1504.7,271.4,-0.9,0.9,2485.787,13.28,791.0,1.098,88.1
2024-01-27T07:30:13,2420,42.8014,5.9826,-0.002,0.507,0.871,156.0,153.0,153.0,11.8,1504.7,271.4,-0.8,0.9,2485.516,13.28,788.0,0.507,359.8
2024-01-27T07:33:13,2420,42.8014,5.9826,0.581,0.003,2.011,156.0,153.0,154.0,11.7,1504.7,271.5,-0.8,0.9,2485.956,13.28,796.0,0.581,89.7
2024-01-27T07:36:13,2420,42.8014,5.9826,0.929,0.506,2.578,156.0,153.0,154.0,11.8,1504.7,271.4,-0.9,0.9,2485.374,13.28,785.0,1.058,61.4
2024-01-27T07:39:13,2420,42.8014,5.9826,0.706,0.522,1.939,156.0,153.0,153.0,11.8,1504.7,271.3,-0.8,0.9,2485.84,13.28,786.0,0.878,53.5
2024-01-27T07:42:13,2420,42.8014,5.9826,0.889,0.025,2.602,156.0,153.0,153.0,11.8,1504.7,271.3,-0.9,0.9,2485.512,13.28,791.0,0.889,88.4
2024-01-27T07:45:13,2420,42.8014,5.9826,0.75,0.265,2.32,156.0,153.0,154.0,11.7,1504.7,271.4,-0.8,0.9,2485.757,13.28,789.0,0.795,70.5
2024-01-27T07:48:13,2420,42.8014,5.9826,0.403,0.017,1.325,156.0,153.0,154.0,11.8,1504.7,271.4,-0.8,0.9,2485.619,13.28,792.0,0.403,87.6
2024-01-27T07:51:12,2420,42.8014,5.9826,0.958,0.017,2.572,156.0,153.0,153.0,11.8,1504.7,271.4,-0.8,0.9,2485.468,13.28,806.0,0.958,89.0
2024-01-27T07:54:13,2420,42.8014,5.9826,0.682,-0.219,2.385,156.0,153.0,154.0,11.8,1504.7,271.3,-0.9,0.9,2485.805,13.28,808.0,0.716,107.8
2024-01-27T07:57:13,2420,42.8014,5.9826,0.769,-0.221,2.293,156.0,153.0,154.0,11.7,1504.7,271.4,-0.9,0.9,2485.789,13.28,786.0,0.8,106.0
2024-01-27T08:03:13,2420,42.8014,5.9826,0.821,-0.233,2.285,156.0,153.0,153.0,11.8,1504.7,271.4,-0.9,0.9,2485.593,13.28,796.0,0.853,105.8
2024-01-27T08:06:13,2420,42.8014,5.9826,0.582,-0.471,2.05,156.0,153.0,154.0,11.7,1504.7,271.4,-0.8,0.9,2485.542,13.28,786.0,0.749,129.0
2024-01-27T08:09:13,2420,42.8014,5.9826,0.379,0.994,1.403,156.0,153.0,153.0,11.8,1504.7,271.6,-0.8,0.9,2485.44,13.28,783.0,1.064,20.9
2024-01-27T08:12:13,2420,42.8014,5.9826,0.675,-0.477,1.983,156.0,153.0,153.0,11.8,1504.7,271.4,-0.9,0.9,2485.848,13.28,793.0,0.827,125.2
2024-01-27T08:15:12,2420,42.8014,5.9826,0.599,-0.732,1.6,156.0,153.0,154.0,11.8,1504.7,271.3,-0.8,0.9,2486.042,13.28,787.0,0.946,140.7
2024-01-27T08:18:13,2420,42.8014,5.9826,0.479,-0.971,1.273,156.0,153.0,153.0,11.8,1504.7,271.3,-0.8,0.9,2485.645,13.28,776.0,1.083,153.7
2024-01-27T08:21:13,2420,42.8014,5.9826,0.644,-0.463,2.0,156.0,153.0,153.0,11.8,1504.7,271.4,-0.9,0.9,2485.964,13.28,780.0,0.793,125.7
2024-01-27T08:24:13,2420,42.8014,5.9826,0.55,0.252,1.651,156.0,153.0,153.0,11.7,1504.7,271.3,-0.8,0.9,2485.442,13.28,786.0,0.605,65.4
2024-01-27T08:27:13,2420,42.8014,5.9826,0.476,0.014,1.273,156.0,153.0,153.0,11.8,1504.7,271.4,-0.9,0.9,2485.936,13.28,809.0,0.476,88.3
2024-01-27T08:30:13,2420,42.8014,5.9826,0.225,-0.73,1.089,156.0,153.0,154.0,11.8,1504.7,271.3,-0.8,0.9,2485.787,13.28,791.0,0.764,162.9
2024-01-27T08:33:13,2420,42.8014,5.9826,0.029,-0.735,0.39,156.0,153.0,153.0,11.8,1504.7,271.3,-0.8,0.9,2485.579,13.28,787.0,0.736,177.7
2024-01-27T08:36:13,2420,42.8014,5.9826,0.503,0.012,1.251,156.0,153.0,153.0,11.8,1504.7,271.4,-0.8,0.9,2486.01,13.28,783.0,0.503,88.6
2024-01-27T08:39:13,2420,42.8014,5.9826,0.283,-0.241,1.032,156.0,153.0,154.0,11.8,1504.7,271.3,-0.8,0.9,2485.564,13.28,793.0,0.372,130.4
2024-01-27T08:42:13,2420,42.8014,5.9826,0.369,0.005,1.418,156.0,153.0,153.0,11.8,1504.7,271.3,-0.9,0.9,2486.084,13.28,776.0,0.369,89.2
2024-01-27T08:45:13,2420,42.8014,5.9826,0.498,0.262,1.669,156.0,153.0,154.0,11.8,1504.7,271.5,-0.8,0.9,2485.603,13.28,795.0,0.563,62.2
2024-01-27T08:48:13,2420,42.8014,5.9826,0.45,0.501,1.308,156.0,153.0,154.0,11.7,1504.7,271.3,-0.8,0.9,2485.617,13.28,790.0,0.673,41.9
2024-01-27T08:51:13,2420,42.8014,5.9826,0.733,0.255,2.332,156.0,153.0,153.0,11.7,1504.7,271.4,-0.8,0.9,2485.619,13.28,794.0,0.776,70.8
2024-01-27T08:54:13,2420,42.8014,5.9826,0.939,0.023,2.59,156.0,153.0,153.0,11.8,1504.7,271.3,-0.8,0.9,2486.072,13.28,793.0,0.939,88.6
2024-01-27T08:57:12,2420,42.8014,5.9826,0.765,-0.226,2.32,156.0,153.0,153.0,11.8,1504.7,271.3,-0.8,0.9,2485.621,13.28,781.0,0.798,106.5
2024-01-27T09:03:13,2420,42.8014,5.9826,0.551,0.023,2.116,156.0,153.0,154.0,11.8,1504.7,271.3,-0.9,0.9,2485.653,13.28,808.0,0.551,87.6